• In Belarus
  • List of Countries
  • For 7 days
  • Water Temperature
  • Satellite Maps
  • Weather Map
  • Weather Widgets
  • user-avatar
    Login

    Hourly Weather Bonn

    Today, 20 January, Sunday

    Time Temperature Precipitation Wind Pressure Humidity
    00:00 -3°C° 0 mm 2 mps 754 mmHg 66%
    01:00 -3°C° 0 mm 2 mps 754 mmHg 67%
    02:00 -3°C° 0 mm 2 mps 754 mmHg 67%
    03:00 -3°C° 0 mm 2 mps 754 mmHg 68%
    04:00 -4°C° 0 mm 2 mps 754 mmHg 69%
    05:00 -4°C° 0 mm 2 mps 754 mmHg 70%
    06:00 -4°C° 0 mm 2 mps 754 mmHg 71%
    07:00 -3°C° 0 mm 2 mps 755 mmHg 69%
    08:00 -3°C° 0 mm 2 mps 755 mmHg 67%
    09:00 -3°C° 0 mm 2 mps 755 mmHg 64%
    10:00 -2°C° 0 mm 2 mps 756 mmHg 60%
    11:00 +1°C° 0 mm 2 mps 756 mmHg 55%
    12:00 +2°C° 0 mm 2 mps 756 mmHg 51%
    13:00 +2°C° 0 mm 1 mps 756 mmHg 52%
    14:00 +2°C° 0 mm 1 mps 756 mmHg 54%
    15:00 +2°C° 0 mm 1 mps 756 mmHg 56%
    16:00 +1°C° 0 mm 1 mps 757 mmHg 59%
    17:00 0°C° 0 mm 1 mps 757 mmHg 62%
    18:00 -2°C° 0 mm 0 mps 758 mmHg 65%
    19:00 -2°C° 0 mm 0 mps 758 mmHg 65%
    20:00 -1°C° 0 mm 1 mps 759 mmHg 65%
    21:00 -1°C° 0 mm 1 mps 759 mmHg 65%
    22:00 -2°C° 0 mm 0 mps 759 mmHg 63%
    23:00 -2°C° 0 mm 0 mps 760 mmHg 62%

    Tomorrow, 21 January, Monday

    Time Temperature Precipitation Wind Pressure Humidity
    00:00 -2°C° 0 mm 0 mps 760 mmHg 61%
    01:00 -3°C° 0 mm 0 mps 760 mmHg 60%
    02:00 -3°C° 0 mm 0 mps 760 mmHg 59%
    03:00 -3°C° 0 mm 0 mps 761 mmHg 59%
    04:00 -3°C° 0 mm 0 mps 761 mmHg 59%
    05:00 -3°C° 0 mm 0 mps 761 mmHg 59%
    06:00 -3°C° 0 mm 0 mps 761 mmHg 59%
    07:00 -2°C° 0 mm 0 mps 761 mmHg 56%
    08:00 -2°C° 0 mm 0 mps 761 mmHg 54%
    09:00 -1°C° 0 mm 0 mps 761 mmHg 52%
    10:00 0°C° 0 mm 0 mps 761 mmHg 48%
    11:00 +1°C° 0 mm 0 mps 761 mmHg 44%
    12:00 +2°C° 0 mm 0 mps 761 mmHg 40%
    13:00 +2°C° 0 mm 0 mps 760 mmHg 42%
    14:00 +1°C° 0 mm 0 mps 760 mmHg 44%
    15:00 +1°C° 0 mm 0 mps 759 mmHg 46%
    16:00 0°C° 0 mm 0 mps 759 mmHg 48%
    17:00 0°C° 0 mm 1 mps 759 mmHg 51%
    18:00 0°C° 0 mm 1 mps 759 mmHg 54%
    19:00 -1°C° 0 mm 1 mps 759 mmHg 55%
    20:00 -1°C° 0 mm 1 mps 758 mmHg 57%
    21:00 -1°C° 0 mm 1 mps 758 mmHg 58%
    22:00 -3°C° 0 mm 2 mps 757 mmHg 58%
    23:00 -3°C° 0 mm 2 mps 757 mmHg 58%

    Day after tomorrow, 22 January, Tuesday

    Time Temperature Precipitation Wind Pressure Humidity
    00:00 -3°C° 0 mm 2 mps 756 mmHg 58%
    01:00 -3°C° 0 mm 2 mps 755 mmHg 57%
    02:00 -4°C° 0 mm 3 mps 754 mmHg 56%
    03:00 -4°C° 0 mm 3 mps 754 mmHg 55%
    04:00 -4°C° 0 mm 3 mps 753 mmHg 56%
    05:00 -4°C° 0 mm 3 mps 752 mmHg 56%
    06:00 -4°C° 0 mm 4 mps 751 mmHg 56%
    07:00 -3°C° 0 mm 4 mps 750 mmHg 54%
    08:00 -3°C° 0 mm 4 mps 749 mmHg 52%
    09:00 -2°C° 0 mm 5 mps 749 mmHg 50%
    10:00 -2°C° 0 mm 5 mps 748 mmHg 49%
    11:00 -1°C° 0 mm 5 mps 747 mmHg 47%
    12:00 0°C° 0 mm 5 mps 746 mmHg 46%
    13:00 0°C° 0 mm 4 mps 745 mmHg 49%
    14:00 0°C° 0 mm 3 mps 745 mmHg 52%
    15:00 0°C° 0 mm 3 mps 744 mmHg 55%
    16:00 0°C° 0 mm 3 mps 744 mmHg 58%
    17:00 0°C° 0 mm 3 mps 744 mmHg 60%
    18:00 -1°C° 0 mm 3 mps 743 mmHg 63%
    19:00 -1°C° 0 mm 2 mps 743 mmHg 65%
    20:00 -1°C° 0 mm 2 mps 743 mmHg 67%
    21:00 +1°C° 0 mm 1 mps 743 mmHg 69%
    22:00 0°C° 0 mm 1 mps 743 mmHg 70%
    23:00 0°C° 0 mm 1 mps 743 mmHg 72%

    23 January, Wednesday

    Time Temperature Precipitation Wind Pressure Humidity
    00:00 0°C° 0 mm 1 mps 743 mmHg 73%
    01:00 0°C° 0 mm 1 mps 743 mmHg 75%
    02:00 0°C° 0 mm 1 mps 742 mmHg 76%
    03:00 -1°C° 0 mm 0 mps 742 mmHg 78%
    04:00 -1°C° 0 mm 0 mps 743 mmHg 79%
    05:00 -1°C° 0 mm 0 mps 743 mmHg 80%
    06:00 -1°C° 0 mm 0 mps 743 mmHg 81%
    07:00 -1°C° 0 mm 0 mps 744 mmHg 79%
    08:00 -1°C° 0 mm 0 mps 744 mmHg 76%
    09:00 0°C° 0 mm 0 mps 744 mmHg 74%
    10:00 0°C° 0 mm 0 mps 745 mmHg 71%
    11:00 +1°C° 0 mm 0 mps 745 mmHg 67%
    12:00 +2°C° 0 mm 0 mps 745 mmHg 64%
    13:00 +3°C° 0 mm 1 mps 745 mmHg 67%
    14:00 +3°C° 0 mm 1 mps 746 mmHg 71%
    15:00 +2°C° 0 mm 1 mps 746 mmHg 74%
    16:00 +2°C° 0 mm 1 mps 746 mmHg 79%
    17:00 +1°C° 0 mm 1 mps 747 mmHg 84%
    18:00 0°C° 0 mm 1 mps 748 mmHg 90%
    19:00 -1°C° 0 mm 0 mps 748 mmHg 90%
    20:00 -1°C° 0 mm 0 mps 748 mmHg 90%
    21:00 -1°C° 0 mm 0 mps 749 mmHg 90%
    22:00 -1°C° 0 mm 0 mps 749 mmHg 91%
    23:00 -1°C° 0 mm 0 mps 749 mmHg 92%

    24 January, Thursday

    Time Temperature Precipitation Wind Pressure Humidity
    00:00 -1°C° 0 mm 0 mps 750 mmHg 92%
    01:00 -1°C° 0 mm 0 mps 750 mmHg 92%
    02:00 -1°C° 0 mm 0 mps 750 mmHg 92%
    03:00 0°C° 0 mm 0 mps 750 mmHg 91%
    04:00 0°C° 0 mm 0 mps 751 mmHg 91%
    05:00 0°C° 0 mm 0 mps 751 mmHg 91%
    06:00 0°C° 0 mm 0 mps 751 mmHg 91%
    07:00 +1°C° 0 mm 1 mps 751 mmHg 90%
    08:00 +1°C° 0 mm 1 mps 752 mmHg 89%
    09:00 +2°C° 0 mm 1 mps 752 mmHg 88%
    10:00 +2°C° 0 mm 1 mps 752 mmHg 86%
    11:00 +3°C° 0 mm 1 mps 752 mmHg 85%
    12:00 +3°C° 0 mm 1 mps 752 mmHg 84%
    13:00 +2°C° 0.1 mm 2 mps 752 mmHg 86%
    14:00 +2°C° 0.1 mm 2 mps 752 mmHg 87%
    15:00 +2°C° 0.1 mm 2 mps 752 mmHg 89%
    16:00 +1°C° 0.1 mm 2 mps 753 mmHg 91%
    17:00 +1°C° 0.1 mm 2 mps 753 mmHg 92%
    18:00 -1°C° 0.1 mm 2 mps 754 mmHg 94%
    19:00 -1°C° 0 mm 2 mps 754 mmHg 94%
    20:00 -2°C° 0 mm 2 mps 754 mmHg 93%
    21:00 0°C° 0 mm 1 mps 755 mmHg 93%
    22:00 0°C° 0 mm 1 mps 755 mmHg 93%
    23:00 0°C° 0 mm 1 mps 756 mmHg 93%

    25 January, Friday

    Time Temperature Precipitation Wind Pressure Humidity
    00:00 -1°C° 0 mm 1 mps 756 mmHg 92%
    01:00 -1°C° 0 mm 1 mps 756 mmHg 92%
    02:00 0°C° 0 mm 1 mps 756 mmHg 92%
    03:00 0°C° 0 mm 1 mps 757 mmHg 91%
    04:00 0°C° 0 mm 1 mps 757 mmHg 91%
    05:00 0°C° 0 mm 1 mps 757 mmHg 91%
    06:00 0°C° 0 mm 1 mps 758 mmHg 92%
    07:00 0°C° 0 mm 1 mps 758 mmHg 90%
    08:00 0°C° 0 mm 1 mps 759 mmHg 88%
    09:00 +1°C° 0 mm 1 mps 760 mmHg 85%
    10:00 +2°C° 0 mm 1 mps 760 mmHg 82%
    11:00 +2°C° 0 mm 1 mps 760 mmHg 78%
    12:00 +3°C° 0 mm 1 mps 760 mmHg 74%
    13:00 +3°C° 0 mm 1 mps 760 mmHg 76%
    14:00 +3°C° 0 mm 1 mps 760 mmHg 78%
    15:00 +3°C° 0 mm 1 mps 760 mmHg 80%
    16:00 +2°C° 0 mm 1 mps 761 mmHg 83%
    17:00 +1°C° 0 mm 1 mps 761 mmHg 87%
    18:00 -1°C° 0 mm 0 mps 761 mmHg 91%
    19:00 0°C° 0 mm 1 mps 762 mmHg 91%
    20:00 0°C° 0 mm 1 mps 762 mmHg 90%
    21:00 0°C° 0 mm 1 mps 762 mmHg 90%
    22:00 0°C° 0 mm 1 mps 762 mmHg 89%
    23:00 0°C° 0 mm 1 mps 762 mmHg 88%
    Show more